This is the latest recevied weather packets stored in our database for station/object WB5LJZ-9. If no packets are shown the sender has not sent any weather packets the latest 10 day(s).
| Time | Temp. | Humidity | Pressure | Rain* | Wind** | Luminosity | Snow |
|---|---|---|---|---|---|---|---|
| 1787681581 | - | - | 987 hPa | 0 mm | 3.13 m/s, 343° | - | - |
| 1787680855 | - | - | 987 hPa | 0 mm | 2.24 m/s, 6° | - | - |
| 1787680132 | - | - | 987 hPa | 0 mm | 1.79 m/s, 128° | - | - |
| 1787679391 | - | - | 988 hPa | 0 mm | 4.02 m/s, 299° | - | - |
| 1787678674 | - | - | 988 hPa | 0 mm | 1.79 m/s, 320° | - | - |
| 1787677951 | - | - | 988 hPa | 0 mm | 2.24 m/s, 331° | - | - |
| 1787677234 | - | - | 988 hPa | 0 mm | 1.79 m/s, 292° | - | - |
| 1787676517 | - | - | 988 hPa | 0 mm | 1.34 m/s, 338° | - | - |
| 1787675793 | - | - | 988 hPa | 0 mm | 3.13 m/s, 7° | - | - |
| 1787675071 | - | - | 988 hPa | 0 mm | 2.68 m/s, 295° | - | - |
| 1787674352 | - | - | 988 hPa | 0 mm | 2.68 m/s, 289° | - | - |
| 1787673630 | - | - | 988 hPa | 0 mm | 2.68 m/s, 285° | - | - |
| 1787672913 | - | - | 988 hPa | 0 mm | 1.34 m/s, 292° | - | - |
| 1787672195 | - | - | 988 hPa | 0 mm | 1.79 m/s, 18° | - | - |
| 1787671468 | - | - | 988 hPa | 0 mm | 2.68 m/s, 2° | - | - |
| 1787670748 | - | - | 988 hPa | 0 mm | 1.34 m/s, 339° | - | - |
| 1787670024 | - | - | 988 hPa | 0 mm | 0 m/s | - | - |
| 1787669296 | - | - | 988 hPa | 0 mm | 0 m/s | - | - |
| 1787668575 | - | - | 988 hPa | 0 mm | 1.79 m/s, 321° | - | - |
| 1787667845 | - | - | 988 hPa | 0 mm | 2.24 m/s, 315° | - | - |
| 1787667118 | - | - | 988 hPa | 0 mm | 0 m/s | - | - |
| 1787666402 | - | - | 988 hPa | 0 mm | 0 m/s | - | - |
| 1787665683 | - | - | 988 hPa | 0 mm | 2.68 m/s, 259° | - | - |
| 1787664948 | - | - | 988 hPa | 0 mm | 1.79 m/s, 264° | - | - |
| 1787664226 | - | - | 988 hPa | 0 mm | 0 m/s | - | - |
* Rain latest hour (hover to see other rain measurements)
** Current wind speed in m/s (hover to see current wind gust speed)